Time,TemperatureF,DewpointF,PressureIn,WindDirection,WindDirectionDegrees,WindSpeedMPH,WindSpeedGustMPH,Humidity,HourlyPrecipIn,Conditions,Clouds,dailyrainin,SoftwareType,DateUTC
2013-01-25 00:03:00,5.0,-4.0,30.00,NW,319,20.0,40.0,67,0.00,,,0.00,,2013-01-25 05:03:00,
2013-01-25 00:12:00,5.0,-3.0,30.00,NW,306,23.0,34.0,68,0.00,,,0.00,,2013-01-25 05:12:00,
2013-01-25 00:22:00,5.0,-3.0,30.00,NW,306,23.0,34.0,68,0.00,,,0.00,,2013-01-25 05:22:00,
2013-01-25 00:32:00,5.0,-3.0,29.99,WNW,298,19.0,37.0,68,0.00,,,0.00,,2013-01-25 05:32:00,
2013-01-25 00:43:00,5.0,-3.0,29.99,WNW,298,19.0,37.0,68,0.00,,,0.00,,2013-01-25 05:43:00,
2013-01-25 00:52:00,5.0,-3.0,29.99,West,281,23.0,34.0,70,0.00,,,0.00,,2013-01-25 05:52:00,
2013-01-25 01:02:00,6.0,-2.0,29.99,WNW,302,20.0,34.0,70,0.00,,,0.00,,2013-01-25 06:02:00,
2013-01-25 01:11:00,6.0,-2.0,29.99,WNW,302,20.0,34.0,70,0.00,,,0.00,,2013-01-25 06:11:00,
2013-01-25 01:22:00,5.0,-3.0,30.00,WNW,287,22.0,33.0,70,0.00,,,0.00,,2013-01-25 06:22:00,
2013-01-25 01:32:00,6.0,-1.0,30.01,NW,314,19.0,34.0,72,0.00,,,0.00,,2013-01-25 06:32:00,
2013-01-25 01:42:00,6.0,-1.0,30.01,NW,314,19.0,34.0,72,0.00,,,0.00,,2013-01-25 06:42:00,
2013-01-25 01:52:00,5.0,-2.0,30.01,NW,306,20.0,37.0,71,0.00,,,0.00,,2013-01-25 06:52:00,
2013-01-25 02:02:00,6.0,-1.0,30.02,WNW,294,20.0,33.0,73,0.00,,,0.00,,2013-01-25 07:02:00,
2013-01-25 02:11:00,6.0,-1.0,30.02,WNW,294,20.0,33.0,73,0.00,,,0.00,,2013-01-25 07:11:00,
2013-01-25 02:22:00,6.0,0.0,30.02,NW,304,23.0,35.0,74,0.00,,,0.00,,2013-01-25 07:22:00,
2013-01-25 02:32:00,6.0,-1.0,30.02,West,277,23.0,37.0,72,0.00,,,0.00,,2013-01-25 07:32:00,
2013-01-25 02:42:00,6.0,-1.0,30.02,West,277,23.0,37.0,72,0.00,,,0.00,,2013-01-25 07:42:00,
2013-01-25 02:52:00,6.0,-1.0,30.01,WNW,292,23.0,37.0,71,0.00,,,0.00,,2013-01-25 07:52:00,
2013-01-25 03:02:00,7.0,1.0,30.02,NW,311,23.0,42.0,75,0.00,,,0.00,,2013-01-25 08:02:00,
2013-01-25 03:12:00,6.0,0.0,30.02,NW,306,27.0,38.0,74,0.00,,,0.00,,2013-01-25 08:12:00,
2013-01-25 03:21:00,6.0,0.0,30.02,NW,306,27.0,38.0,74,0.00,,,0.00,,2013-01-25 08:21:00,
2013-01-25 03:32:00,7.0,1.0,30.03,NW,304,23.0,35.0,75,0.00,,,0.00,,2013-01-25 08:32:00,
2013-01-25 03:42:00,7.0,1.0,30.03,NW,304,23.0,35.0,75,0.00,,,0.00,,2013-01-25 08:42:00,
2013-01-25 03:52:00,7.0,0.0,30.05,NW,313,17.0,36.0,73,0.00,,,0.00,,2013-01-25 08:52:00,
2013-01-25 04:02:00,7.0,0.0,30.03,NNW,327,24.0,36.0,73,0.00,,,0.00,,2013-01-25 09:02:00,
2013-01-25 04:11:00,7.0,0.0,30.03,NNW,327,24.0,36.0,73,0.00,,,0.00,,2013-01-25 09:11:00,
2013-01-25 04:21:00,7.0,0.0,30.03,WNW,296,24.0,37.0,73,0.00,,,0.00,,2013-01-25 09:21:00,
2013-01-25 04:32:00,7.0,0.0,30.05,WNW,300,22.0,38.0,74,0.00,,,0.00,,2013-01-25 09:32:00,
2013-01-25 04:42:00,7.0,0.0,30.05,WNW,300,22.0,38.0,74,0.00,,,0.00,,2013-01-25 09:42:00,
2013-01-25 04:52:00,7.0,0.0,30.06,NW,311,14.0,31.0,73,0.00,,,0.00,,2013-01-25 09:52:00,
2013-01-25 05:02:00,7.0,1.0,30.07,NW,307,23.0,33.0,75,0.00,,,0.00,,2013-01-25 10:02:00,
2013-01-25 05:12:00,7.0,1.0,30.07,NW,307,23.0,33.0,75,0.00,,,0.00,,2013-01-25 10:12:00,
2013-01-25 05:21:00,7.0,1.0,30.06,WNW,295,25.0,38.0,75,0.00,,,0.00,,2013-01-25 10:21:00,
2013-01-25 05:32:00,7.0,1.0,30.06,WNW,284,15.0,33.0,76,0.00,,,0.00,,2013-01-25 10:32:00,
2013-01-25 05:42:00,7.0,1.0,30.06,WNW,284,15.0,33.0,76,0.00,,,0.00,,2013-01-25 10:42:00,
2013-01-25 05:52:00,7.0,1.0,30.06,NW,305,16.0,25.0,77,0.00,,,0.00,,2013-01-25 10:52:00,
2013-01-25 06:02:00,7.0,1.0,30.06,West,265,20.0,28.0,75,0.00,,,0.00,,2013-01-25 11:02:00,
2013-01-25 06:11:00,7.0,1.0,30.06,West,265,20.0,28.0,75,0.00,,,0.00,,2013-01-25 11:11:00,
2013-01-25 06:22:00,7.0,1.0,30.06,NW,309,18.0,29.0,75,0.00,,,0.00,,2013-01-25 11:22:00,
2013-01-25 06:32:00,7.0,1.0,30.07,West,277,20.0,30.0,75,0.00,,,0.00,,2013-01-25 11:32:00,
2013-01-25 06:42:00,7.0,1.0,30.07,West,277,20.0,30.0,75,0.00,,,0.00,,2013-01-25 11:42:00,
2013-01-25 06:52:00,7.0,1.0,30.08,NW,314,17.0,28.0,76,0.00,,,0.00,,2013-01-25 11:52:00,
2013-01-25 07:02:00,7.0,0.0,30.08,West,271,19.0,33.0,74,0.00,,,0.00,,2013-01-25 12:02:00,
2013-01-25 07:12:00,7.0,0.0,30.08,West,271,19.0,33.0,74,0.00,,,0.00,,2013-01-25 12:12:00,
2013-01-25 07:22:00,7.0,1.0,30.08,West,280,16.0,27.0,76,0.00,,,0.00,,2013-01-25 12:22:00,
2013-01-25 07:32:00,8.0,2.0,30.08,WNW,302,22.0,28.0,76,0.00,,,0.00,,2013-01-25 12:32:00,
2013-01-25 07:42:00,8.0,2.0,30.08,WNW,302,22.0,28.0,76,0.00,,,0.00,,2013-01-25 12:42:00,
2013-01-25 07:53:00,8.0,2.0,30.08,WNW,284,22.0,33.0,76,0.00,,,0.00,,2013-01-25 12:53:00,
2013-01-25 08:02:00,8.0,2.0,30.09,WNW,295,19.0,32.0,75,0.00,,,0.00,,2013-01-25 13:02:00,
2013-01-25 08:12:00,8.0,2.0,30.09,WNW,295,19.0,32.0,75,0.00,,,0.00,,2013-01-25 13:12:00,
2013-01-25 08:22:00,8.0,1.0,30.09,NW,322,22.0,35.0,74,0.00,,,0.00,,2013-01-25 13:22:00,
2013-01-25 08:32:00,9.0,3.0,30.09,NW,306,21.0,34.0,77,0.00,,,0.00,,2013-01-25 13:32:00,
2013-01-25 08:42:00,9.0,3.0,30.09,NW,306,21.0,34.0,77,0.00,,,0.00,,2013-01-25 13:42:00,
2013-01-25 08:53:00,9.0,3.0,30.10,West,280,23.0,39.0,75,0.00,,,0.00,,2013-01-25 13:53:00,
2013-01-25 09:03:00,9.0,3.0,30.10,West,270,22.0,33.0,76,0.00,,,0.00,,2013-01-25 14:03:00,
2013-01-25 09:12:00,9.0,3.0,30.10,West,270,22.0,33.0,76,0.00,,,0.00,,2013-01-25 14:12:00,
2013-01-25 09:23:00,10.0,3.0,30.10,WNW,290,22.0,34.0,73,0.00,,,0.00,,2013-01-25 14:23:00,
2013-01-25 09:33:00,10.0,3.0,30.09,NNW,340,21.0,39.0,73,0.00,,,0.00,,2013-01-25 14:33:00,
2013-01-25 09:42:00,10.0,3.0,30.09,NNW,340,21.0,39.0,73,0.00,,,0.00,,2013-01-25 14:42:00,
2013-01-25 09:53:00,11.0,4.0,30.09,NNW,337,23.0,40.0,74,0.00,,,0.00,,2013-01-25 14:53:00,
2013-01-25 10:02:00,11.0,4.0,30.10,West,263,21.0,35.0,74,0.00,,,0.00,,2013-01-25 15:02:00,
2013-01-25 10:12:00,11.0,4.0,30.10,West,263,21.0,35.0,74,0.00,,,0.00,,2013-01-25 15:12:00,
2013-01-25 10:22:00,12.0,4.0,30.10,NW,305,21.0,34.0,71,0.00,,,0.00,,2013-01-25 15:22:00,
2013-01-25 10:32:00,12.0,4.0,30.10,WNW,302,18.0,40.0,70,0.00,,,0.00,,2013-01-25 15:32:00,
2013-01-25 10:42:00,12.0,4.0,30.10,WNW,302,18.0,40.0,70,0.00,,,0.00,,2013-01-25 15:42:00,
2013-01-25 10:53:00,12.0,4.0,30.10,NW,319,21.0,32.0,69,0.00,,,0.00,,2013-01-25 15:53:00,
2013-01-25 11:03:00,13.0,4.0,30.09,West,280,18.0,34.0,68,0.00,,,0.00,,2013-01-25 16:03:00,
2013-01-25 11:12:00,13.0,4.0,30.09,West,280,18.0,34.0,68,0.00,,,0.00,,2013-01-25 16:12:00,
2013-01-25 11:23:00,14.0,5.0,30.09,NW,310,18.0,36.0,67,0.00,,,0.00,,2013-01-25 16:23:00,
2013-01-25 11:33:00,14.0,5.0,30.08,WNW,291,15.0,29.0,68,0.00,,,0.00,,2013-01-25 16:33:00,
2013-01-25 11:43:00,14.0,5.0,30.08,WNW,291,15.0,29.0,68,0.00,,,0.00,,2013-01-25 16:43:00,
2013-01-25 11:53:00,14.0,4.0,30.07,NW,316,19.0,27.0,64,0.00,,,0.00,,2013-01-25 16:53:00,
2013-01-25 12:03:00,15.0,5.0,30.06,WNW,283,16.0,30.0,64,0.00,,,0.00,,2013-01-25 17:03:00,
2013-01-25 12:12:00,15.0,5.0,30.06,WNW,283,16.0,30.0,64,0.00,,,0.00,,2013-01-25 17:12:00,
2013-01-25 12:22:00,16.0,6.0,30.06,NW,305,14.0,27.0,64,0.00,,,0.00,,2013-01-25 17:22:00,
2013-01-25 12:33:00,17.0,7.0,30.05,WNW,298,16.0,27.0,63,0.00,,,0.00,,2013-01-25 17:33:00,
2013-01-25 12:43:00,17.0,7.0,30.05,WNW,298,16.0,27.0,63,0.00,,,0.00,,2013-01-25 17:43:00,
2013-01-25 12:53:00,17.0,6.0,30.05,NW,304,15.0,28.0,61,0.00,,,0.00,,2013-01-25 17:53:00,
2013-01-25 13:03:00,18.0,6.0,30.05,WNW,284,14.0,30.0,60,0.00,,,0.00,,2013-01-25 18:03:00,
2013-01-25 13:12:00,18.0,6.0,30.05,WNW,284,14.0,30.0,60,0.00,,,0.00,,2013-01-25 18:12:00,
2013-01-25 13:23:00,18.0,6.0,30.05,NW,313,17.0,28.0,59,0.00,,,0.00,,2013-01-25 18:23:00,
2013-01-25 13:33:00,19.0,6.0,30.05,NW,323,15.0,27.0,57,0.00,,,0.00,,2013-01-25 18:33:00,
2013-01-25 13:42:00,19.0,6.0,30.05,NW,323,15.0,27.0,57,0.00,,,0.00,,2013-01-25 18:42:00,
2013-01-25 13:52:00,19.0,6.0,30.05,WNW,295,15.0,28.0,56,0.00,,,0.00,,2013-01-25 18:52:00,
2013-01-25 14:03:00,19.0,6.0,30.05,West,278,15.0,26.0,55,0.00,,,0.00,,2013-01-25 19:03:00,
2013-01-25 14:12:00,19.0,6.0,30.05,West,278,15.0,26.0,55,0.00,,,0.00,,2013-01-25 19:12:00,
2013-01-25 14:22:00,19.0,5.0,30.04,WNW,284,15.0,22.0,54,0.00,,,0.00,,2013-01-25 19:22:00,
2013-01-25 14:32:00,19.0,7.0,30.04,WNW,303,15.0,31.0,58,0.00,,,0.00,,2013-01-25 19:32:00,
2013-01-25 14:42:00,19.0,7.0,30.04,WNW,303,15.0,31.0,58,0.00,,,0.00,,2013-01-25 19:42:00,
2013-01-25 14:53:00,19.0,4.0,30.04,NW,309,11.0,21.0,52,0.00,,,0.00,,2013-01-25 19:53:00,
2013-01-25 15:03:00,20.0,5.0,30.04,WNW,284,15.0,23.0,52,0.00,,,0.00,,2013-01-25 20:03:00,
2013-01-25 15:12:00,20.0,5.0,30.04,WNW,284,15.0,23.0,52,0.00,,,0.00,,2013-01-25 20:12:00,
2013-01-25 15:23:00,20.0,5.0,30.04,West,260,17.0,22.0,52,0.00,,,0.00,,2013-01-25 20:23:00,
2013-01-25 15:32:00,20.0,6.0,30.05,West,276,14.0,22.0,54,0.00,,,0.00,,2013-01-25 20:32:00,
2013-01-25 15:42:00,20.0,6.0,30.05,West,276,14.0,22.0,54,0.00,,,0.00,,2013-01-25 20:42:00,
2013-01-25 15:53:00,20.0,4.0,30.05,West,280,17.0,26.0,49,0.00,,,0.00,,2013-01-25 20:53:00,
2013-01-25 16:02:00,20.0,4.0,30.05,WNW,284,12.0,23.0,50,0.00,,,0.00,,2013-01-25 21:02:00,
2013-01-25 16:12:00,20.0,4.0,30.05,WNW,284,12.0,23.0,50,0.00,,,0.00,,2013-01-25 21:12:00,
2013-01-25 16:23:00,20.0,3.0,30.05,NW,307,15.0,23.0,47,0.00,,,0.00,,2013-01-25 21:23:00,
2013-01-25 16:33:00,20.0,4.0,30.05,WNW,303,15.0,22.0,48,0.00,,,0.00,,2013-01-25 21:33:00,
2013-01-25 16:42:00,20.0,4.0,30.05,WNW,303,15.0,22.0,48,0.00,,,0.00,,2013-01-25 21:42:00,
2013-01-25 16:52:00,20.0,6.0,30.05,WNW,298,13.0,25.0,53,0.00,,,0.00,,2013-01-25 21:52:00,
2013-01-25 17:03:00,20.0,5.0,30.05,NW,316,15.0,24.0,51,0.00,,,0.00,,2013-01-25 22:03:00,
2013-01-25 17:12:00,20.0,5.0,30.05,NW,316,15.0,24.0,51,0.00,,,0.00,,2013-01-25 22:12:00,
2013-01-25 17:22:00,20.0,4.0,30.05,West,274,17.0,28.0,49,0.00,,,0.00,,2013-01-25 22:22:00,
2013-01-25 17:33:00,20.0,5.0,30.05,NW,304,15.0,25.0,51,0.00,,,0.00,,2013-01-25 22:33:00,
2013-01-25 17:42:00,20.0,5.0,30.05,NW,304,15.0,25.0,51,0.00,,,0.00,,2013-01-25 22:42:00,
2013-01-25 17:53:00,19.0,4.0,30.05,WNW,282,12.0,21.0,52,0.00,,,0.00,,2013-01-25 22:53:00,
2013-01-25 18:02:00,19.0,4.0,30.06,NW,307,15.0,21.0,52,0.00,,,0.00,,2013-01-25 23:02:00,
2013-01-25 18:12:00,19.0,4.0,30.06,NW,307,15.0,21.0,52,0.00,,,0.00,,2013-01-25 23:12:00,
2013-01-25 18:22:00,19.0,4.0,30.06,West,279,15.0,21.0,52,0.00,,,0.00,,2013-01-25 23:22:00,
2013-01-25 18:32:00,19.0,5.0,30.05,WNW,296,17.0,27.0,54,0.00,,,0.00,,2013-01-25 23:32:00,
2013-01-25 18:42:00,19.0,5.0,30.05,WNW,296,17.0,27.0,54,0.00,,,0.00,,2013-01-25 23:42:00,
2013-01-25 18:53:00,19.0,4.0,30.06,WNW,284,16.0,26.0,52,0.00,,,0.00,,2013-01-25 23:53:00,
2013-01-25 19:02:00,19.0,5.0,30.06,WNW,290,17.0,25.0,53,0.00,,,0.00,,2013-01-26 00:02:00,
2013-01-25 19:11:00,19.0,5.0,30.06,WNW,290,17.0,25.0,53,0.00,,,0.00,,2013-01-26 00:11:00,
2013-01-25 19:22:00,19.0,5.0,30.06,WNW,287,13.0,23.0,54,0.00,,,0.00,,2013-01-26 00:22:00,
2013-01-25 19:32:00,18.0,3.0,30.07,WNW,286,13.0,25.0,52,0.00,,,0.00,,2013-01-26 00:32:00,
2013-01-25 19:42:00,18.0,3.0,30.07,WNW,286,13.0,25.0,52,0.00,,,0.00,,2013-01-26 00:42:00,
2013-01-25 19:53:00,18.0,5.0,30.07,WNW,296,13.0,25.0,55,0.00,,,0.00,,2013-01-26 00:53:00,
2013-01-25 20:02:00,18.0,5.0,30.06,WNW,297,12.0,25.0,55,0.00,,,0.00,,2013-01-26 01:02:00,
2013-01-25 20:12:00,18.0,5.0,30.06,WNW,297,12.0,25.0,55,0.00,,,0.00,,2013-01-26 01:12:00,
2013-01-25 20:22:00,18.0,4.0,30.07,NW,317,14.0,24.0,54,0.00,,,0.00,,2013-01-26 01:22:00,
2013-01-25 20:32:00,17.0,3.0,30.06,WNW,298,15.0,24.0,53,0.00,,,0.00,,2013-01-26 01:32:00,
2013-01-25 20:42:00,17.0,3.0,30.06,WNW,298,15.0,24.0,53,0.00,,,0.00,,2013-01-26 01:42:00,
2013-01-25 20:52:00,17.0,4.0,30.06,NW,321,13.0,19.0,55,0.00,,,0.00,,2013-01-26 01:52:00,
2013-01-25 21:02:00,17.0,4.0,30.06,NW,306,11.0,17.0,57,0.00,,,0.00,,2013-01-26 02:02:00,
2013-01-25 21:11:00,17.0,4.0,30.06,NW,306,11.0,17.0,57,0.00,,,0.00,,2013-01-26 02:11:00,
2013-01-25 21:22:00,17.0,3.0,30.06,NNW,337,14.0,22.0,53,0.00,,,0.00,,2013-01-26 02:22:00,
2013-01-25 21:32:00,17.0,4.0,30.05,NW,315,10.0,22.0,57,0.00,,,0.00,,2013-01-26 02:32:00,
2013-01-25 21:42:00,17.0,4.0,30.05,NW,315,10.0,22.0,57,0.00,,,0.00,,2013-01-26 02:42:00,
2013-01-25 21:52:00,16.0,2.0,30.05,NNW,335,13.0,22.0,54,0.00,,,0.00,,2013-01-26 02:52:00,
2013-01-25 22:02:00,16.0,4.0,30.04,North,360,8.0,14.0,58,0.00,,,0.00,,2013-01-26 03:02:00,
2013-01-25 22:12:00,16.0,4.0,30.04,North,360,8.0,14.0,58,0.00,,,0.00,,2013-01-26 03:12:00,
2013-01-25 22:22:00,15.0,2.0,30.04,North,355,4.0,12.0,56,0.00,,,0.00,,2013-01-26 03:22:00,
2013-01-25 22:32:00,14.0,1.0,30.04,NNW,342,11.0,13.0,55,0.00,,,0.00,,2013-01-26 03:32:00,
2013-01-25 22:43:00,14.0,1.0,30.04,NNW,342,11.0,13.0,55,0.00,,,0.00,,2013-01-26 03:43:00,
2013-01-25 22:52:00,14.0,1.0,30.03,North,5,4.0,13.0,55,0.00,,,0.00,,2013-01-26 03:52:00,
2013-01-25 23:02:00,14.0,0.0,30.04,North,360,2.0,15.0,53,0.00,,,0.00,,2013-01-26 04:02:00,
2013-01-25 23:12:00,14.0,0.0,30.04,North,360,2.0,15.0,53,0.00,,,0.00,,2013-01-26 04:12:00,
2013-01-25 23:21:00,14.0,-1.0,30.04,NNW,346,9.0,15.0,51,0.00,,,0.00,,2013-01-26 04:21:00,
2013-01-25 23:32:00,13.0,-1.0,30.05,North,10,2.0,10.0,52,0.00,,,0.00,,2013-01-26 04:32:00,
2013-01-25 23:42:00,13.0,-1.0,30.05,North,10,2.0,10.0,52,0.00,,,0.00,,2013-01-26 04:42:00,
2013-01-25 23:52:00,12.0,-3.0,30.05,North,9,8.0,12.0,51,0.00,,,0.00,,2013-01-26 04:52:00,